Date String (YYYY-MM-DD hh:mm:ss) UTC,Instrument flags,Ambient pressure (hPa),Sample flow (lpm),Bypass flow (lpm),Sample temperature (°C),Ambient temperature (°C),ASC tube jacket temperature (°C),LED temperature (°C),Box temperature (°C),Sample RH (%),Span deviation,Mass concentration (μg/m³),Mass concentration (μg/m³),Mass concentration (μg/m³)
DateTimeUTC,F1_M11,P_M11,Q1_M11,Q2_M11,T1_M11,T2_M11,T3_M11,T4_M11,T5_M11,U1_M11,ZSPAN_M11,X2_M11,X0_M11,X1_M11
2022-05-08 01:00:00,,0811.4,4.99,0.00,29.0,26.6,00.0,38.0,30.8,18.6,0000.0,0009.68,0029.69,0003.40
2022-05-08 01:01:00,,0811.4,5.01,0.00,29.1,27.0,00.0,38.0,30.9,18.6,0000.0,0009.75,0029.78,0003.41
2022-05-08 01:02:00,,0811.6,5.00,0.00,29.1,27.3,00.0,38.0,31.0,18.4,0000.0,0009.82,0031.86,0003.43
2022-05-08 01:03:00,,0811.7,5.00,0.00,29.1,27.5,00.0,38.0,31.0,18.3,0000.0,0009.91,0032.55,0003.43
2022-05-08 01:04:00,,0811.9,4.98,0.00,29.2,27.7,00.0,38.0,31.1,18.4,0000.0,0010.06,0032.99,0003.45
2022-05-08 01:05:00,,0812.0,5.00,0.00,29.2,27.9,00.0,38.1,31.1,18.5,0000.0,0010.09,0032.95,0003.45
2022-05-08 01:06:00,,0811.9,5.01,0.00,29.3,28.1,00.0,38.1,31.2,18.3,0000.0,0010.01,0031.71,0003.45
2022-05-08 01:07:00,,0811.9,5.00,0.00,29.3,28.2,00.0,38.1,31.3,18.2,0000.0,0009.89,0030.81,0003.43
2022-05-08 01:08:00,,0811.9,5.00,0.00,29.4,28.3,00.0,38.1,31.3,18.2,0000.0,0009.88,0030.54,0003.41
2022-05-08 01:09:00,,0811.9,4.98,0.00,29.4,28.5,00.0,38.1,31.4,18.3,0000.0,0009.70,0029.92,0003.38
2022-05-08 01:10:00,,0811.7,4.99,0.00,29.5,28.6,00.0,38.2,31.4,18.1,0000.0,0009.62,0029.59,0003.37
2022-05-08 01:11:00,,0811.7,5.00,0.00,29.5,28.7,00.0,38.2,31.5,17.9,0000.0,0009.54,0028.99,0003.37
2022-05-08 01:12:00,,0811.7,5.01,0.00,29.6,28.8,00.0,38.2,31.5,18.0,0000.0,0009.63,0029.10,0003.38
2022-05-08 01:13:00,,0811.7,5.00,0.00,29.5,27.3,00.0,38.3,31.2,18.1,0000.0,0009.69,0028.21,0003.37
2022-05-08 01:14:00,,0811.9,5.01,0.00,29.4,25.6,00.0,38.3,30.8,18.2,0000.0,0009.68,0028.69,0003.36
2022-05-08 01:15:00,,0811.9,5.00,0.00,29.3,25.7,00.0,38.2,30.8,18.3,0000.0,0009.61,0029.25,0003.35
2022-05-08 01:16:00,,0812.1,5.00,0.00,29.3,26.1,00.0,38.2,30.9,18.5,0000.0,0009.60,0030.58,0003.34
2022-05-08 01:17:00,,0812.2,4.99,0.00,29.2,26.6,00.0,38.2,31.0,18.6,0000.0,0009.61,0032.68,0003.33
2022-05-08 01:18:00,,0812.3,5.00,0.00,29.3,27.0,00.0,38.2,31.0,18.4,0000.0,0009.59,0033.85,0003.33
2022-05-08 01:19:00,,0812.4,5.00,0.00,29.3,27.4,00.0,38.2,31.1,18.3,0000.0,0009.52,0033.90,0003.35
2022-05-08 01:20:00,,0812.4,5.00,0.00,29.3,27.7,00.0,38.2,31.2,18.5,0000.0,0009.52,0033.94,0003.35
2022-05-08 01:21:00,,0812.4,5.00,0.00,29.4,27.9,00.0,38.2,31.3,18.4,0000.0,0009.51,0034.36,0003.33
2022-05-08 01:22:00,,0812.5,5.04,0.00,29.4,28.1,00.0,38.2,31.3,18.2,0000.0,0009.47,0034.31,0003.31
2022-05-08 01:23:00,,0812.5,4.99,0.00,29.4,28.2,00.0,38.2,31.3,17.9,0000.0,0009.27,0033.77,0003.28
2022-05-08 01:24:00,,0812.6,4.98,0.00,29.5,28.4,00.0,38.2,31.4,17.9,0000.0,0009.15,0033.16,0003.27
2022-05-08 01:25:00,,0812.6,5.01,0.00,29.5,28.5,00.0,38.3,31.4,18.0,0000.0,0009.12,0032.05,0003.27
2022-05-08 01:26:00,,0812.6,5.01,0.00,29.6,28.6,00.0,38.3,31.5,18.1,0000.0,0009.06,0030.74,0003.26
2022-05-08 01:27:00,,0812.7,4.99,0.00,29.6,28.2,00.0,38.3,31.4,18.1,0000.0,0008.91,0029.87,0003.25
2022-05-08 01:28:00,,0812.6,5.01,0.00,29.5,26.0,00.0,38.3,31.0,18.3,0000.0,0008.96,0028.52,0003.27
2022-05-08 01:29:00,,0812.6,5.01,0.00,29.4,25.7,00.0,38.3,30.9,18.4,0000.0,0008.99,0026.62,0003.28
2022-05-08 01:30:00,,0812.6,4.99,0.00,29.3,26.0,00.0,38.3,30.9,18.4,0000.0,0008.98,0026.78,0003.26
2022-05-08 01:31:00,,0812.6,5.00,0.00,29.3,26.5,00.0,38.2,31.0,18.4,0000.0,0009.11,0027.13,0003.25
2022-05-08 01:32:00,,0812.6,5.00,0.00,29.3,26.9,00.0,38.2,31.0,18.4,0000.0,0009.11,0027.25,0003.26
2022-05-08 01:33:00,,0812.6,5.00,0.00,29.3,27.2,00.0,38.2,31.1,18.3,0000.0,0009.21,0027.23,0003.29
2022-05-08 01:34:00,,0812.6,5.00,0.00,29.3,27.5,00.0,38.2,31.1,18.3,0000.0,0009.35,0027.11,0003.31
2022-05-08 01:35:00,,0812.6,5.00,0.00,29.3,27.7,00.0,38.2,31.2,18.3,0000.0,0009.42,0026.86,0003.30
2022-05-08 01:36:00,,0812.6,5.00,0.00,29.4,27.9,00.0,38.2,31.2,18.4,0000.0,0009.34,0026.67,0003.30
2022-05-08 01:37:00,,0812.6,5.00,0.00,29.4,28.1,00.0,38.2,31.2,18.2,0000.0,0009.31,0026.74,0003.30
2022-05-08 01:38:00,,0812.6,5.00,0.00,29.4,28.3,00.0,38.3,31.3,18.0,0000.0,0009.43,0027.21,0003.31
2022-05-08 01:39:00,,0812.7,5.00,0.00,29.5,28.4,00.0,38.3,31.4,18.0,0000.0,0009.51,0027.59,0003.32
2022-05-08 01:40:00,,0812.6,5.00,0.00,29.5,28.5,00.0,38.3,31.4,18.0,0000.0,0009.50,0027.87,0003.32
2022-05-08 01:41:00,,0812.8,4.99,0.00,29.5,28.6,00.0,38.3,31.4,18.1,0000.0,0009.50,0027.62,0003.32
2022-05-08 01:42:00,,0812.8,5.00,0.00,29.5,28.5,00.0,38.3,31.4,18.0,0000.0,0009.55,0027.74,0003.33
2022-05-08 01:43:00,,0813.1,5.01,0.00,29.5,26.8,00.0,38.4,31.0,18.2,0000.0,0009.57,0028.07,0003.35
2022-05-08 01:44:00,,0813.1,5.00,0.00,29.4,25.5,00.0,38.3,30.8,18.3,0000.0,0009.45,0028.80,0003.34
2022-05-08 01:45:00,,0813.1,4.99,0.00,29.3,25.7,00.0,38.3,30.8,18.3,0000.0,0009.49,0029.24,0003.34
2022-05-08 01:46:00,,0813.2,5.01,0.00,29.2,26.1,00.0,38.2,30.9,18.4,0000.0,0009.61,0029.48,0003.36
2022-05-08 01:47:00,,0813.2,4.99,0.00,29.2,26.5,00.0,38.2,30.9,18.3,0000.0,0009.63,0029.25,0003.34
2022-05-08 01:48:00,,0813.2,4.99,0.00,29.2,26.9,00.0,38.2,30.9,18.4,0000.0,0009.68,0028.92,0003.34
2022-05-08 01:49:00,,0813.2,5.01,0.00,29.2,27.2,00.0,38.2,30.9,18.3,0000.0,0009.69,0028.12,0003.35
2022-05-08 01:50:00,,0813.3,4.99,0.00,29.2,27.4,00.0,38.2,30.9,18.6,0000.0,0009.71,0027.52,0003.35
2022-05-08 01:51:00,,0813.3,5.00,0.00,29.2,27.6,00.0,38.2,31.0,18.6,0000.0,0009.82,0027.75,0003.35
2022-05-08 01:52:00,,0813.3,5.00,0.00,29.2,27.8,00.0,38.2,31.0,18.6,0000.0,0009.88,0027.93,0003.35
2022-05-08 01:53:00,,0813.3,5.00,0.00,29.2,27.9,00.0,38.2,31.0,18.7,0000.0,0009.93,0027.82,0003.34
2022-05-08 01:54:00,,0813.2,5.00,0.00,29.2,28.0,00.0,38.2,31.0,18.6,0000.0,0009.93,0027.28,0003.33
2022-05-08 01:55:00,,0813.2,5.00,0.00,29.2,28.1,00.0,38.2,31.1,18.8,0000.0,0010.01,0026.63,0003.31
2022-05-08 01:56:00,,0813.1,5.01,0.00,29.3,28.2,00.0,38.2,31.1,19.0,0000.0,0009.94,0026.20,0003.32
2022-05-08 01:57:00,,0813.0,5.00,0.00,29.3,28.3,00.0,38.2,31.1,19.0,0000.0,0009.76,0025.80,0003.30
2022-05-08 01:58:00,,0813.0,5.00,0.00,29.3,28.3,00.0,38.2,31.2,18.8,0000.0,0009.78,0025.83,0003.32
2022-05-08 01:59:00,,0812.8,4.99,0.00,29.3,28.4,00.0,38.2,31.2,18.8,0000.0,0009.86,0026.59,0003.34
